Weather Roundup
Issued by NWS Springfield, MO

Home | Current Version | Previous Version | Text Only | Print | Product List | Glossary On
Versions: 1 2 3 4 5 6 7 8 9 10 11 12 13 14 15 16 17 18 19 20 21 22 23 24 25 26 27 28 29 30 31 32 33 34 35 36 37 38 39 40 41 42 43 44 45 46 47 48 49 50
000
NZUS99 KSGF 261059
HRRSGF

HOURLY WEATHER
NATIONAL WEATHER SERVICE SPRINGFIELD MO
600 AM CDT SAT JUL 26 2014

......SGF CWA......

CITY           SKY/WX    TMP DP  RH WIND       PRES   REMARKS
SPRINGFIELD    CLOUDY    73  71  93 S10       29.94R
JOPLIN         PTCLDY    77  71  82 S13       29.92R
WEST PLAINS    CLEAR     70  68  93 SW5       29.99R FOG
ROLLA          PTCLDY    73  69  87 SW13      29.90R
OSAGE BEACH    PTCLDY    77  70  78 SW10      29.90R
BRANSON        PTCLDY    72  70  94 SW5       29.98S

......SURROUNDING SGF CWA......

CITY           SKY/WX    TMP DP  RH WIND       PRES   REMARKS
CHANUTE        PTCLDY    75  71  87 S13       29.88R
PARSONS        PTCLDY    76  71  85 S8        29.89S
COFFEYVILLE    PTCLDY    76  72  87 S10       29.89R
EMPORIA        CLOUDY    80  65  59 S14       29.82F
SILOAM SPRINGS CLEAR     73  64  73 S9        29.98S
HARRISON AR    CLEAR     73  70  90 S6        29.99R
NEAR YELLVILLE CLEAR     72  70  94 CALM      29.97R

......KANSAS AND MISSOURI......

CITY           SKY/WX    TMP DP  RH WIND       PRES   REMARKS
KANSAS CTY INT MOCLDY    76  70  82 SW6       29.81S
DOWNTOWN KC    PTCLDY    82  70  66 SW14      29.80S
COLUMBIA       PTCLDY    72  71  97 S7        29.87R
SEDALIA        PTCLDY    78  71  79 SW14G25   29.86S HAZE
ST JOSEPH      MOCLDY    73  71  93 CALM      29.79F
ST LOUIS       PTCLDY    73  66  78 S8        29.88F
SPIRIT OF STL  CLOUDY    72  67  84 CALM      29.87S
KIRKSVILLE     PTCLDY    74  71  91 SW6       29.83S
WICHITA        MOCLDY    76  65  68 S12       29.85F
TOPEKA         MOCLDY    83  68  60 SW7       29.79S
OLATHE         CLEAR     79  70  74 SW12G18   29.82S

......TENNESSEE......

CITY           SKY/WX    TMP DP  RH WIND       PRES   REMARKS
MEMPHIS        PTCLDY    72  66  81 S6        30.00R
NASHVILLE      PTCLDY    65  63  93 CALM      30.02S

......ARKANSAS.......

CITY           SKY/WX    TMP DP  RH WIND       PRES   REMARKS
FAYETTEVILLE   CLEAR     73  70  90 S3        29.99R
FT SMITH       CLEAR     74  72  93 E5        29.96R FOG
LITTLE ROCK    CLEAR     73  69  87 SE3       29.99R

......OKLAHOMA.......

CITY           SKY/WX    TMP DP  RH WIND       PRES   REMARKS
TULSA          PTCLDY    79  71  76 S9        29.89R
PONCA CITY     PTCLDY    75  67  76 S5        29.89R
MCALESTER      PTCLDY    77  71  82 S7        29.96R
OKLAHOMA CITY  PTCLDY    74  66  76 S9        29.93S

......IOWA............

CITY           SKY/WX    TMP DP  RH WIND       PRES   REMARKS
DES MOINES     CLOUDY    71  68  90 N3        29.83R
QUAD CITIES    CLOUDY    67  63  87 E3        29.82R

......ILLINOIS........

CITY           SKY/WX    TMP DP  RH WIND       PRES   REMARKS
QUINCY         CLEAR     72  68  87 S9        29.83S
CHICAGO        CLOUDY    69  58  67 SW3       29.85S



USA.gov is the U.S. government's official web portal to all federal, state and local government web resources and services.